Time,TemperatureF,DewpointF,PressureIn,WindDirection,WindDirectionDegrees,WindSpeedMPH,WindSpeedGustMPH,Humidity,HourlyPrecipIn,Conditions,Clouds,dailyrainin,SoftwareType,DateUTC
2013-03-05 00:02:00,45.9,43.7,30.10,ESE,110,1.0,11.0,92,0.00,,,0.00,Wunderground v.1.15,2013-03-05 08:02:00,
2013-03-05 00:07:00,45.5,43.3,30.10,ESE,110,0.0,11.0,92,0.00,,,0.00,Wunderground v.1.15,2013-03-05 08:07:00,
2013-03-05 00:17:00,46.0,44.1,30.10,ESE,110,0.0,11.0,93,0.00,,,0.00,Wunderground v.1.15,2013-03-05 08:17:00,
2013-03-05 00:22:00,45.9,44.0,30.10,ESE,110,0.0,11.0,93,0.00,,,0.00,Wunderground v.1.15,2013-03-05 08:22:00,
2013-03-05 00:32:00,45.3,43.1,30.10,ESE,110,0.0,11.0,92,0.00,,,0.00,Wunderground v.1.15,2013-03-05 08:32:00,
2013-03-05 00:42:00,44.5,42.9,30.10,ESE,110,0.0,11.0,94,0.00,,,0.00,Wunderground v.1.15,2013-03-05 08:42:00,
2013-03-05 00:52:00,45.0,43.4,30.10,ESE,110,0.0,11.0,94,0.00,,,0.00,Wunderground v.1.15,2013-03-05 08:52:00,
2013-03-05 01:02:00,44.6,43.0,30.10,ESE,104,1.0,11.0,94,0.00,,,0.00,Wunderground v.1.15,2013-03-05 09:02:00,
2013-03-05 01:12:00,45.5,43.9,30.09,NNE,22,0.0,11.0,94,0.00,,,0.00,Wunderground v.1.15,2013-03-05 09:12:00,
2013-03-05 01:22:00,46.6,44.4,30.10,NE,49,1.0,11.0,92,0.00,,,0.00,Wunderground v.1.15,2013-03-05 09:22:00,
2013-03-05 01:32:00,45.4,43.5,30.09,NE,46,1.0,11.0,93,0.00,,,0.00,Wunderground v.1.15,2013-03-05 09:32:00,
2013-03-05 01:42:00,45.7,44.1,30.09,SE,135,2.0,11.0,94,0.00,,,0.00,Wunderground v.1.15,2013-03-05 09:42:00,
2013-03-05 01:52:00,44.8,42.9,30.09,SW,219,1.0,11.0,93,0.00,,,0.00,Wunderground v.1.15,2013-03-05 09:52:00,
2013-03-05 01:57:00,44.8,42.9,30.10,SW,226,1.0,11.0,93,0.00,,,0.00,Wunderground v.1.15,2013-03-05 09:57:00,
2013-03-05 02:07:00,44.7,42.8,30.10,SSW,201,1.0,1.0,93,0.00,,,0.00,Wunderground v.1.15,2013-03-05 10:07:00,
2013-03-05 02:12:00,44.6,43.0,30.10,WSW,245,0.0,11.0,94,0.00,,,0.00,Wunderground v.1.15,2013-03-05 10:12:00,
2013-03-05 02:22:00,44.5,42.9,30.10,SW,236,0.0,11.0,94,0.00,,,0.00,Wunderground v.1.15,2013-03-05 10:22:00,
2013-03-05 02:27:00,43.6,41.4,30.10,SW,236,0.0,11.0,92,0.00,,,0.00,Wunderground v.1.15,2013-03-05 10:27:00,
2013-03-05 02:37:00,43.2,41.6,30.10,SW,236,0.0,11.0,94,0.00,,,0.00,Wunderground v.1.15,2013-03-05 10:37:00,
2013-03-05 02:42:00,43.5,42.2,30.10,SSW,205,0.0,11.0,95,0.00,,,0.00,Wunderground v.1.15,2013-03-05 10:42:00,
2013-03-05 02:52:00,43.3,41.7,30.10,WSW,245,1.0,11.0,94,0.00,,,0.00,Wunderground v.1.15,2013-03-05 10:52:00,
2013-03-05 02:57:00,43.6,42.3,30.11,West,259,1.0,11.0,95,0.00,,,0.00,Wunderground v.1.15,2013-03-05 10:57:00,
2013-03-05 03:07:00,44.3,43.0,30.11,WNW,293,1.0,11.0,95,0.00,,,0.00,Wunderground v.1.15,2013-03-05 11:07:00,
2013-03-05 03:12:00,44.7,43.4,30.11,West,281,2.0,11.0,95,0.00,,,0.00,Wunderground v.1.15,2013-03-05 11:12:00,
2013-03-05 03:22:00,43.9,42.0,30.11,SE,134,1.0,11.0,93,0.00,,,0.00,Wunderground v.1.15,2013-03-05 11:22:00,
2013-03-05 03:27:00,43.8,42.2,30.11,SE,134,0.0,11.0,94,0.00,,,0.00,Wunderground v.1.15,2013-03-05 11:27:00,
2013-03-05 03:37:00,44.1,42.5,30.11,SSW,200,0.0,11.0,94,0.00,,,0.00,Wunderground v.1.15,2013-03-05 11:37:00,
2013-03-05 03:42:00,44.2,42.6,30.11,SSW,200,0.0,11.0,94,0.00,,,0.00,Wunderground v.1.15,2013-03-05 11:42:00,
2013-03-05 03:52:00,44.5,42.9,30.11,SSW,200,0.0,11.0,94,0.00,,,0.00,Wunderground v.1.15,2013-03-05 11:52:00,
2013-03-05 03:57:00,44.9,43.6,30.10,SSE,148,0.0,11.0,95,0.00,,,0.00,Wunderground v.1.15,2013-03-05 11:57:00,
2013-03-05 04:07:00,45.4,43.8,30.10,ENE,64,0.0,11.0,94,0.00,,,0.00,Wunderground v.1.15,2013-03-05 12:07:00,
2013-03-05 04:12:00,45.7,44.1,30.11,ESE,104,1.0,11.0,94,0.00,,,0.00,Wunderground v.1.15,2013-03-05 12:12:00,
2013-03-05 04:22:00,46.1,44.5,30.10,East,82,2.0,11.0,94,0.00,,,0.00,Wunderground v.1.15,2013-03-05 12:22:00,
2013-03-05 04:32:00,46.7,45.1,30.10,East,92,0.0,11.0,94,0.00,,,0.00,Wunderground v.1.15,2013-03-05 12:32:00,
2013-03-05 04:42:00,47.3,45.9,30.10,NE,49,1.0,11.0,95,0.00,,,0.00,Wunderground v.1.15,2013-03-05 12:42:00,
2013-03-05 04:47:00,47.5,45.9,30.10,NE,36,2.0,11.0,94,0.00,,,0.00,Wunderground v.1.15,2013-03-05 12:47:00,
2013-03-05 04:57:00,47.0,45.1,30.11,NNE,26,3.0,11.0,93,0.00,,,0.00,Wunderground v.1.15,2013-03-05 12:57:00,
2013-03-05 05:02:00,46.9,45.0,30.11,NE,49,3.0,11.0,93,0.00,,,0.00,Wunderground v.1.15,2013-03-05 13:02:00,
2013-03-05 05:12:00,47.2,45.3,30.11,ENE,60,3.0,11.0,93,0.00,,,0.00,Wunderground v.1.15,2013-03-05 13:12:00,
2013-03-05 05:17:00,46.8,44.6,30.11,ESE,108,3.0,11.0,92,0.00,,,0.00,Wunderground v.1.15,2013-03-05 13:17:00,
2013-03-05 05:27:00,45.9,44.0,30.11,ENE,60,4.0,11.0,93,0.00,,,0.00,Wunderground v.1.15,2013-03-05 13:27:00,
2013-03-05 05:32:00,46.0,44.1,30.11,ENE,75,4.0,11.0,93,0.00,,,0.00,Wunderground v.1.15,2013-03-05 13:32:00,
2013-03-05 05:42:00,46.6,45.0,30.11,ENE,77,3.0,11.0,94,0.00,,,0.00,Wunderground v.1.15,2013-03-05 13:42:00,
2013-03-05 05:52:00,47.4,45.8,30.11,NE,43,4.0,11.0,94,0.00,,,0.00,Wunderground v.1.15,2013-03-05 13:52:00,
2013-03-05 06:02:00,48.4,46.5,30.11,NE,49,3.0,11.0,93,0.00,,,0.00,Wunderground v.1.15,2013-03-05 14:02:00,
2013-03-05 06:07:00,48.6,46.4,30.11,NE,39,3.0,3.0,92,0.00,,,0.00,Wunderground v.1.15,2013-03-05 14:07:00,
2013-03-05 06:17:00,48.7,46.2,30.11,NNE,27,2.0,11.0,91,0.00,,,0.00,Wunderground v.1.15,2013-03-05 14:17:00,
2013-03-05 06:22:00,48.4,45.9,30.11,North,6,3.0,11.0,91,0.00,,,0.00,Wunderground v.1.15,2013-03-05 14:22:00,
2013-03-05 06:32:00,48.2,45.7,30.11,NNE,30,3.0,11.0,91,0.00,,,0.00,Wunderground v.1.15,2013-03-05 14:32:00,
2013-03-05 06:37:00,48.2,45.7,30.12,NE,41,3.0,3.0,91,0.00,,,0.00,Wunderground v.1.15,2013-03-05 14:37:00,
2013-03-05 06:47:00,48.3,45.8,30.12,NE,43,2.0,11.0,91,0.00,,,0.00,Wunderground v.1.15,2013-03-05 14:47:00,
2013-03-05 06:52:00,48.5,46.0,30.11,NE,49,2.0,11.0,91,0.00,,,0.00,Wunderground v.1.15,2013-03-05 14:52:00,
2013-03-05 07:02:00,48.5,45.7,30.11,NE,47,3.0,11.0,90,0.00,,,0.00,Wunderground v.1.15,2013-03-05 15:02:00,
2013-03-05 07:12:00,48.7,45.9,30.11,NE,43,4.0,11.0,90,0.00,,,0.00,Wunderground v.1.15,2013-03-05 15:12:00,
2013-03-05 07:22:00,48.9,46.4,30.12,NE,54,3.0,11.0,91,0.00,,,0.00,Wunderground v.1.15,2013-03-05 15:22:00,
2013-03-05 07:32:00,48.9,46.1,30.12,ENE,60,4.0,11.0,90,0.00,,,0.00,Wunderground v.1.15,2013-03-05 15:32:00,
2013-03-05 07:42:00,49.3,46.5,30.12,NE,49,4.0,11.0,90,0.00,,,0.00,Wunderground v.1.15,2013-03-05 15:42:00,
2013-03-05 07:52:00,49.8,47.0,30.12,NE,46,5.0,11.0,90,0.00,,,0.00,Wunderground v.1.15,2013-03-05 15:52:00,
2013-03-05 08:02:00,50.3,47.2,30.12,NE,36,5.0,11.0,89,0.00,,,0.00,Wunderground v.1.15,2013-03-05 16:02:00,
2013-03-05 08:07:00,50.5,47.1,30.12,NE,45,6.0,6.0,88,0.00,,,0.00,Wunderground v.1.15,2013-03-05 16:07:00,
2013-03-05 08:17:00,50.8,47.4,30.13,ENE,65,5.0,11.0,88,0.00,,,0.00,Wunderground v.1.15,2013-03-05 16:17:00,
2013-03-05 08:22:00,51.1,47.7,30.13,ENE,73,5.0,11.0,88,0.00,,,0.00,Wunderground v.1.15,2013-03-05 16:22:00,
2013-03-05 08:31:00,52.2,48.4,30.13,NE,53,3.0,11.0,87,0.00,,,0.00,Wunderground v.1.15,2013-03-05 16:31:00,
2013-03-05 08:37:00,52.4,48.3,30.13,NNE,25,3.0,3.0,86,0.00,,,0.00,Wunderground v.1.15,2013-03-05 16:37:00,
2013-03-05 08:47:00,52.8,48.4,30.13,NE,36,2.0,11.0,85,0.00,,,0.00,Wunderground v.1.15,2013-03-05 16:47:00,
2013-03-05 08:52:00,53.0,48.3,30.13,North,6,2.0,11.0,84,0.00,,,0.00,Wunderground v.1.15,2013-03-05 16:52:00,
2013-03-05 09:01:00,53.2,48.5,30.13,SSW,200,2.0,11.0,84,0.00,,,0.00,Wunderground v.1.15,2013-03-05 17:01:00,
2013-03-05 09:07:00,53.5,48.8,30.14,East,79,2.0,2.0,84,0.00,,,0.00,Wunderground v.1.15,2013-03-05 17:07:00,
2013-03-05 09:17:00,54.3,48.9,30.14,SSW,194,1.0,11.0,82,0.00,,,0.00,Wunderground v.1.15,2013-03-05 17:17:00,
2013-03-05 09:27:00,54.3,48.6,30.14,SW,224,3.0,3.0,81,0.00,,,0.00,Wunderground v.1.15,2013-03-05 17:27:00,
2013-03-05 09:36:00,54.5,49.1,30.14,SW,214,3.0,11.0,82,0.00,,,0.00,Wunderground v.1.15,2013-03-05 17:36:00,
2013-03-05 09:42:00,54.4,49.0,30.14,SSW,207,3.0,11.0,82,0.00,,,0.00,Wunderground v.1.15,2013-03-05 17:42:00,
2013-03-05 09:51:00,54.8,49.7,30.14,West,266,3.0,11.0,83,0.00,,,0.00,Wunderground v.1.15,2013-03-05 17:51:00,
2013-03-05 09:57:00,54.9,49.2,30.13,SSW,201,3.0,11.0,81,0.00,,,0.00,Wunderground v.1.15,2013-03-05 17:57:00,
2013-03-05 10:06:00,54.9,49.5,30.13,SSE,153,3.0,3.0,82,0.00,,,0.00,Wunderground v.1.15,2013-03-05 18:06:00,
2013-03-05 10:17:00,55.0,49.3,30.13,WNW,290,2.0,11.0,81,0.00,,,0.00,Wunderground v.1.15,2013-03-05 18:17:00,
2013-03-05 10:26:00,55.7,50.0,30.12,West,263,2.0,11.0,81,0.00,,,0.00,Wunderground v.1.15,2013-03-05 18:26:00,
2013-03-05 10:32:00,55.9,49.5,30.12,West,274,2.0,11.0,79,0.00,,,0.00,Wunderground v.1.15,2013-03-05 18:32:00,
2013-03-05 10:41:00,56.7,49.9,30.12,WSW,252,2.0,11.0,78,0.00,,,0.00,Wunderground v.1.15,2013-03-05 18:41:00,
2013-03-05 10:47:00,56.7,49.9,30.11,WSW,253,2.0,11.0,78,0.00,,,0.00,Wunderground v.1.15,2013-03-05 18:47:00,
2013-03-05 10:56:00,56.9,50.1,30.11,SSW,208,3.0,3.0,78,0.00,,,0.00,Wunderground v.1.15,2013-03-05 18:56:00,
2013-03-05 11:02:00,57.4,50.2,30.11,West,264,1.0,11.0,77,0.00,,,0.00,Wunderground v.1.15,2013-03-05 19:02:00,
2013-03-05 11:11:00,57.5,50.3,30.11,SSW,192,3.0,11.0,77,0.00,,,0.00,Wunderground v.1.15,2013-03-05 19:11:00,
2013-03-05 11:17:00,57.8,49.6,30.10,SSW,211,3.0,3.0,74,0.00,,,0.00,Wunderground v.1.15,2013-03-05 19:17:00,
2013-03-05 11:26:00,58.5,49.9,30.10,ESE,105,2.0,11.0,73,0.00,,,0.00,Wunderground v.1.15,2013-03-05 19:26:00,
2013-03-05 11:31:00,58.7,50.4,30.09,SSE,148,3.0,11.0,74,0.00,,,0.00,Wunderground v.1.15,2013-03-05 19:31:00,
2013-03-05 11:41:00,60.0,51.3,30.08,SSW,207,2.0,11.0,73,0.00,,,0.00,Wunderground v.1.15,2013-03-05 19:41:00,
2013-03-05 11:51:00,60.3,50.5,30.08,East,97,2.0,11.0,70,0.00,,,0.00,Wunderground v.1.15,2013-03-05 19:51:00,
2013-03-05 12:01:00,61.0,50.4,30.07,East,79,2.0,4.0,68,0.00,,,0.00,Wunderground v.1.15,2013-03-05 20:01:00,
2013-03-05 12:11:00,60.7,50.5,30.07,North,6,4.0,11.0,69,0.00,,,0.00,Wunderground v.1.15,2013-03-05 20:11:00,
2013-03-05 12:18:00,61.2,51.3,30.06,WSW,253,2.0,2.0,70,0.00,,,0.00,Wunderground v.1.15,2013-03-05 20:18:00,
2013-03-05 12:27:00,62.8,50.9,30.06,SSW,205,5.0,11.0,65,0.00,,,0.00,Wunderground v.1.15,2013-03-05 20:27:00,
2013-03-05 12:32:00,62.3,50.8,30.06,WSW,243,6.0,11.0,66,0.00,,,0.00,Wunderground v.1.15,2013-03-05 20:32:00,
2013-03-05 12:42:00,62.2,51.1,30.06,West,266,5.0,11.0,67,0.00,,,0.00,Wunderground v.1.15,2013-03-05 20:42:00,
2013-03-05 12:48:00,62.8,51.7,30.06,West,260,7.0,12.0,67,0.00,,,0.00,Wunderground v.1.15,2013-03-05 20:48:00,
2013-03-05 12:57:00,62.9,51.4,30.05,West,262,10.0,15.0,66,0.00,,,0.00,Wunderground v.1.15,2013-03-05 20:57:00,
2013-03-05 13:02:00,62.5,51.0,30.05,SW,232,11.0,15.0,66,0.00,,,0.00,Wunderground v.1.15,2013-03-05 21:02:00,
2013-03-05 13:07:00,63.0,51.5,30.05,SW,215,10.0,11.0,66,0.00,,,0.00,Wunderground v.1.15,2013-03-05 21:07:00,
2013-03-05 13:17:00,62.5,51.0,30.05,SW,235,10.0,14.0,66,0.00,,,0.00,Wunderground v.1.15,2013-03-05 21:17:00,
2013-03-05 13:22:00,62.1,51.4,30.05,SSW,194,12.0,16.0,68,0.00,,,0.00,Wunderground v.1.15,2013-03-05 21:22:00,
2013-03-05 13:32:00,62.0,51.7,30.05,WSW,246,13.0,13.0,69,0.00,,,0.00,Wunderground v.1.15,2013-03-05 21:32:00,
2013-03-05 13:37:00,61.1,50.8,30.04,SW,220,13.0,14.0,69,0.00,,,0.00,Wunderground v.1.15,2013-03-05 21:37:00,
2013-03-05 13:47:00,60.9,50.7,30.04,SSW,210,13.0,16.0,69,0.00,,,0.00,Wunderground v.1.15,2013-03-05 21:47:00,
2013-03-05 13:52:00,61.1,50.8,30.04,SW,235,13.0,16.0,69,0.00,,,0.00,Wunderground v.1.15,2013-03-05 21:52:00,
2013-03-05 14:02:00,60.1,50.3,30.03,West,266,12.0,15.0,70,0.00,,,0.00,Wunderground v.1.15,2013-03-05 22:02:00,
2013-03-05 14:07:00,59.8,50.4,30.03,WSW,240,12.0,12.0,71,0.00,,,0.00,Wunderground v.1.15,2013-03-05 22:07:00,
2013-03-05 14:17:00,59.8,50.8,30.03,SSW,208,13.0,13.0,72,0.00,,,0.00,Wunderground v.1.15,2013-03-05 22:17:00,
2013-03-05 14:22:00,59.9,50.5,30.03,WSW,243,12.0,13.0,71,0.00,,,0.00,Wunderground v.1.15,2013-03-05 22:22:00,
2013-03-05 14:32:00,60.2,50.8,30.03,WSW,242,12.0,12.0,71,0.00,,,0.00,Wunderground v.1.15,2013-03-05 22:32:00,
2013-03-05 14:37:00,59.8,50.0,30.03,WSW,252,13.0,13.0,70,0.00,,,0.00,Wunderground v.1.15,2013-03-05 22:37:00,
2013-03-05 14:47:00,60.3,50.5,30.02,SW,228,12.0,12.0,70,0.00,,,0.00,Wunderground v.1.15,2013-03-05 22:47:00,
2013-03-05 14:52:00,60.2,50.0,30.02,SSW,212,12.0,12.0,69,0.00,,,0.00,Wunderground v.1.15,2013-03-05 22:52:00,
2013-03-05 15:02:00,60.0,50.2,30.02,SSW,212,12.0,18.0,70,0.00,,,0.00,Wunderground v.1.15,2013-03-05 23:02:00,
2013-03-05 15:12:00,60.7,50.9,30.02,SSW,200,12.0,17.0,70,0.00,,,0.00,Wunderground v.1.15,2013-03-05 23:12:00,
2013-03-05 15:22:00,60.6,50.4,30.02,SW,226,11.0,13.0,69,0.00,,,0.00,Wunderground v.1.15,2013-03-05 23:22:00,
2013-03-05 15:27:00,60.4,50.2,30.02,SW,236,12.0,13.0,69,0.00,,,0.00,Wunderground v.1.15,2013-03-05 23:27:00,
2013-03-05 15:37:00,59.7,49.5,30.01,WSW,242,12.0,12.0,69,0.00,,,0.00,Wunderground v.1.15,2013-03-05 23:37:00,
2013-03-05 15:42:00,59.8,50.0,30.01,SW,228,12.0,12.0,70,0.00,,,0.00,Wunderground v.1.15,2013-03-05 23:42:00,
2013-03-05 15:52:00,59.2,49.8,30.01,WSW,240,11.0,14.0,71,0.00,,,0.00,Wunderground v.1.15,2013-03-05 23:52:00,
2013-03-05 15:57:00,59.1,49.7,30.01,SW,219,11.0,12.0,71,0.00,,,0.00,Wunderground v.1.15,2013-03-05 23:57:00,
2013-03-05 16:07:00,59.4,49.6,30.01,WSW,239,10.0,14.0,70,0.00,,,0.00,Wunderground v.1.15,2013-03-06 00:07:00,
2013-03-05 16:12:00,59.0,49.6,30.01,SSW,200,11.0,14.0,71,0.00,,,0.00,Wunderground v.1.15,2013-03-06 00:12:00,
2013-03-05 16:22:00,58.8,49.4,30.01,SW,229,10.0,11.0,71,0.00,,,0.00,Wunderground v.1.15,2013-03-06 00:22:00,
2013-03-05 16:27:00,59.1,50.1,30.01,West,270,9.0,9.0,72,0.00,,,0.00,Wunderground v.1.15,2013-03-06 00:27:00,
2013-03-05 16:37:00,59.2,49.8,30.01,WSW,239,9.0,11.0,71,0.00,,,0.00,Wunderground v.1.15,2013-03-06 00:37:00,
2013-03-05 16:42:00,59.0,50.0,30.01,SW,231,9.0,11.0,72,0.00,,,0.00,Wunderground v.1.15,2013-03-06 00:42:00,
2013-03-05 16:52:00,58.6,50.0,30.01,SW,228,9.0,11.0,73,0.00,,,0.00,Wunderground v.1.15,2013-03-06 00:52:00,
2013-03-05 16:57:00,58.6,50.3,30.02,WSW,246,8.0,8.0,74,0.00,,,0.00,Wunderground v.1.15,2013-03-06 00:57:00,
2013-03-05 17:07:00,58.3,50.0,30.01,WSW,256,8.0,8.0,74,0.00,,,0.00,Wunderground v.1.15,2013-03-06 01:07:00,
2013-03-05 17:12:00,57.6,49.7,30.02,West,260,8.0,10.0,75,0.00,,,0.00,Wunderground v.1.15,2013-03-06 01:12:00,
2013-03-05 17:22:00,56.8,49.7,30.02,WSW,238,8.0,11.0,77,0.00,,,0.00,Wunderground v.1.15,2013-03-06 01:22:00,
2013-03-05 17:27:00,56.4,49.6,30.02,WSW,255,7.0,11.0,78,0.00,,,0.00,Wunderground v.1.15,2013-03-06 01:27:00,
2013-03-05 17:37:00,56.0,49.6,30.02,SW,224,8.0,8.0,79,0.00,,,0.00,Wunderground v.1.15,2013-03-06 01:37:00,
2013-03-05 17:42:00,55.6,49.5,30.02,West,259,8.0,11.0,80,0.00,,,0.00,Wunderground v.1.15,2013-03-06 01:42:00,
2013-03-05 17:52:00,55.1,49.7,30.03,WSW,240,7.0,10.0,82,0.00,,,0.00,Wunderground v.1.15,2013-03-06 01:52:00,
2013-03-05 17:57:00,54.9,49.5,30.04,WSW,239,7.0,7.0,82,0.00,,,0.00,Wunderground v.1.15,2013-03-06 01:57:00,
2013-03-05 18:07:00,54.8,49.7,30.04,WSW,256,7.0,11.0,83,0.00,,,0.00,Wunderground v.1.15,2013-03-06 02:07:00,
2013-03-05 18:17:00,54.7,50.0,30.05,SW,215,7.0,11.0,84,0.00,,,0.00,Wunderground v.1.15,2013-03-06 02:17:00,
2013-03-05 18:27:00,54.5,49.4,30.05,WSW,253,8.0,8.0,83,0.00,,,0.00,Wunderground v.1.15,2013-03-06 02:27:00,
2013-03-05 18:32:00,54.4,49.7,30.06,SW,232,7.0,11.0,84,0.00,,,0.00,Wunderground v.1.15,2013-03-06 02:32:00,
2013-03-05 18:42:00,54.4,49.7,30.06,SW,229,7.0,11.0,84,0.00,,,0.00,Wunderground v.1.15,2013-03-06 02:42:00,
2013-03-05 18:47:00,54.4,49.7,30.06,SW,224,7.0,7.0,84,0.00,,,0.00,Wunderground v.1.15,2013-03-06 02:47:00,
2013-03-05 18:57:00,54.2,49.8,30.07,WSW,253,7.0,7.0,85,0.00,,,0.00,Wunderground v.1.15,2013-03-06 02:57:00,
2013-03-05 19:02:00,54.2,49.8,30.07,SSW,207,7.0,11.0,85,0.00,,,0.00,Wunderground v.1.15,2013-03-06 03:02:00,
2013-03-05 19:12:00,53.9,49.5,30.07,SW,236,6.0,11.0,85,0.00,,,0.00,Wunderground v.1.15,2013-03-06 03:12:00,
2013-03-05 19:17:00,53.7,49.3,30.07,WSW,240,7.0,7.0,85,0.00,,,0.00,Wunderground v.1.15,2013-03-06 03:17:00,
2013-03-05 19:27:00,53.5,49.1,30.07,WSW,252,7.0,11.0,85,0.00,,,0.00,Wunderground v.1.15,2013-03-06 03:27:00,
2013-03-05 19:32:00,53.4,49.0,30.07,SW,234,7.0,11.0,85,0.00,,,0.00,Wunderground v.1.15,2013-03-06 03:32:00,
2013-03-05 19:42:00,53.4,49.0,30.07,SW,215,6.0,11.0,85,0.00,,,0.00,Wunderground v.1.15,2013-03-06 03:42:00,
2013-03-05 19:47:00,53.3,48.9,30.07,SW,228,6.0,11.0,85,0.00,,,0.00,Wunderground v.1.15,2013-03-06 03:47:00,
2013-03-05 19:57:00,53.3,48.9,30.07,SSW,198,5.0,11.0,85,0.00,,,0.00,Wunderground v.1.15,2013-03-06 03:57:00,
2013-03-05 20:02:00,53.2,48.8,30.07,SSW,201,5.0,11.0,85,0.00,,,0.00,Wunderground v.1.15,2013-03-06 04:02:00,
2013-03-05 20:12:00,53.1,49.0,30.08,SSW,200,5.0,11.0,86,0.00,,,0.00,Wunderground v.1.15,2013-03-06 04:12:00,
2013-03-05 20:17:00,53.0,48.9,30.08,WSW,248,6.0,6.0,86,0.00,,,0.00,Wunderground v.1.15,2013-03-06 04:17:00,
2013-03-05 20:27:00,53.0,48.9,30.08,SSW,197,5.0,5.0,86,0.00,,,0.00,Wunderground v.1.15,2013-03-06 04:27:00,
2013-03-05 20:32:00,53.0,48.9,30.08,SSW,212,4.0,11.0,86,0.00,,,0.00,Wunderground v.1.15,2013-03-06 04:32:00,
2013-03-05 20:42:00,53.0,48.9,30.08,SW,222,3.0,11.0,86,0.00,,,0.00,Wunderground v.1.15,2013-03-06 04:42:00,
2013-03-05 20:47:00,53.0,48.9,30.08,WSW,240,4.0,4.0,86,0.00,,,0.00,Wunderground v.1.15,2013-03-06 04:47:00,
2013-03-05 20:57:00,53.0,48.9,30.08,SSW,204,4.0,4.0,86,0.00,,,0.00,Wunderground v.1.15,2013-03-06 04:57:00,
2013-03-05 21:02:00,53.0,48.9,30.08,SSW,204,4.0,11.0,86,0.00,,,0.00,Wunderground v.1.15,2013-03-06 05:02:00,
2013-03-05 21:07:00,53.0,48.9,30.09,SSW,201,3.0,11.0,86,0.00,,,0.00,Wunderground v.1.15,2013-03-06 05:07:00,
2013-03-05 21:17:00,53.1,48.7,30.09,SW,226,5.0,5.0,85,0.00,,,0.00,Wunderground v.1.15,2013-03-06 05:17:00,
2013-03-05 21:22:00,53.0,48.9,30.09,SSW,200,5.0,6.0,86,0.00,,,0.00,Wunderground v.1.15,2013-03-06 05:22:00,
2013-03-05 21:27:00,53.0,48.6,30.09,SSW,194,6.0,11.0,85,0.00,,,0.00,Wunderground v.1.15,2013-03-06 05:27:00,
2013-03-05 21:37:00,52.8,48.7,30.09,WSW,256,6.0,6.0,86,0.00,,,0.00,Wunderground v.1.15,2013-03-06 05:37:00,
2013-03-05 21:47:00,52.5,48.4,30.10,SW,218,6.0,11.0,86,0.00,,,0.00,Wunderground v.1.15,2013-03-06 05:47:00,
2013-03-05 21:52:00,52.4,48.3,30.10,SW,224,7.0,11.0,86,0.00,,,0.00,Wunderground v.1.15,2013-03-06 05:52:00,
2013-03-05 21:57:00,52.2,48.1,30.09,SSW,207,6.0,6.0,86,0.00,,,0.00,Wunderground v.1.15,2013-03-06 05:57:00,
2013-03-05 22:07:00,52.1,48.3,30.09,SW,226,3.0,11.0,87,0.00,,,0.00,Wunderground v.1.15,2013-03-06 06:07:00,
2013-03-05 22:12:00,52.0,47.9,30.10,WSW,240,3.0,11.0,86,0.00,,,0.00,Wunderground v.1.15,2013-03-06 06:12:00,
2013-03-05 22:22:00,51.9,48.2,30.11,SW,224,4.0,11.0,87,0.00,,,0.00,Wunderground v.1.15,2013-03-06 06:22:00,
2013-03-05 22:32:00,51.7,48.0,30.11,SW,215,6.0,11.0,87,0.00,,,0.00,Wunderground v.1.15,2013-03-06 06:32:00,
2013-03-05 22:42:00,51.6,47.5,30.11,SSW,210,7.0,11.0,86,0.00,,,0.00,Wunderground v.1.15,2013-03-06 06:42:00,
2013-03-05 22:47:00,51.6,47.5,30.12,WSW,238,6.0,11.0,86,0.00,,,0.00,Wunderground v.1.15,2013-03-06 06:47:00,
2013-03-05 22:57:00,51.6,47.5,30.11,SSW,195,6.0,6.0,86,0.00,,,0.00,Wunderground v.1.15,2013-03-06 06:57:00,
2013-03-05 23:02:00,51.5,47.5,30.12,South,180,6.0,11.0,86,0.00,,,0.00,Wunderground v.1.15,2013-03-06 07:02:00,
2013-03-05 23:12:00,51.5,47.5,30.12,South,188,6.0,11.0,86,0.00,,,0.00,Wunderground v.1.15,2013-03-06 07:12:00,
2013-03-05 23:17:00,51.5,47.1,30.12,SSW,195,5.0,5.0,85,0.00,,,0.00,Wunderground v.1.15,2013-03-06 07:17:00,
2013-03-05 23:27:00,51.5,47.1,30.12,SW,226,4.0,4.0,85,0.00,,,0.00,Wunderground v.1.15,2013-03-06 07:27:00,
2013-03-05 23:32:00,51.5,47.1,30.11,SSE,165,3.0,11.0,85,0.00,,,0.00,Wunderground v.1.15,2013-03-06 07:32:00,
2013-03-05 23:42:00,51.3,46.9,30.12,SW,225,2.0,11.0,85,0.00,,,0.00,Wunderground v.1.15,2013-03-06 07:42:00,
2013-03-05 23:47:00,51.3,46.9,30.12,WSW,238,2.0,11.0,85,0.00,,,0.00,Wunderground v.1.15,2013-03-06 07:47:00,
2013-03-05 23:57:00,51.4,47.0,30.12,WSW,252,1.0,11.0,85,0.00,,,0.00,Wunderground v.1.15,2013-03-06 07:57:00,